Dewpoint
57 57 57 57 58 58 58 58 58 59 59 59 59 59 60 61 59 53 27 45 63 74 71 66 68 68 68 65 65 64 56 54 55 57 56 56 53 54 56 57 57 58 61 65 68
57 57 57 57 58 58 58 58 58 58 59 59 59 59 61 61 51 36 49 70 73 74 65 66 66 67 64 63 64 60 56 55 59 60 59 60 57 54 54 55 57 62 65 67 68
57 57 57 56 56 56 57 58 58 58 58 58 59 60 61 59 35 31 71 73 74 74 67 67 67 67 63 63 63 61 56 59 59 59 61 60 54 54 53 53 56 61 64 66 67
57 57 57 57 57 57 57 58 58 58 58 58 59 60 60 50 32 52 73 73 74 70 62 62 61 61 60 61 62 59 59 58 60 59 60 61 63 54 54 54 57 63 65 65 65
57 57 57 57 57 57 57 57 57 58 58 58 59 60 47 25 12 64 73 74 70 65 58 57 59 58 53 55 61 60 59 62 62 62 63 63 63 60 54 56 60 63 64 64 64
57 57 57 57 57 57 57 57 57 57 57 58 59 60 40 4 50 67 67 64 64 59 54 57 56 55 50 48 56 60 61 62 63 61 60 61 61 62 56 59 61 62 62 63 63
56 56 56 56 57 57 57 57 57 57 57 58 59 54 28 16 59 63 61 56 58 55 46 50 52 48 48 45 59 61 59 60 59 60 59 62 53 54 56 59 60 61 62 62 62
56 56 56 56 56 56 57 56 56 57 57 58 59 48 16 24 37 41 60 54 54 57 54 52 51 49 48 47 55 55 57 54 59 60 60 61 52 55 55 57 58 59 60 61 61
56 56 56 56 56 56 56 56 56 57 58 58 48 42 24 39 16 14 51 28 26 30 51 49 48 44 43 41 42 47 50 54 55 59 59 59 55 55 54 55 56 57 58 59 59
56 56 56 56 56 55 55 55 55 56 55 55 46 20 16 18 18 12 14 13 11 10 29 42 42 40 39 37 36 37 36 43 52 57 59 56 57 54 53 53 53 55 56 57 56
56 56 56 56 55 55 50 24 21 25 23 31 25 28 24 26 18 11 11 11 12 25 28 28 35 37 39 38 38 36 36 35 37 48 55 54 55 53 53 52 52 53 53 54 55
56 55 55 55 54 54 44 24 24 28 21 23 24 27 27 24 11 11 12 7 6 8 21 30 33 29 29 23 18 17 23 23 29 32 52 51 53 56 52 52 52 52 53 53 54
55 55 55 54 54 44 37 31 36 30 21 21 22 18 8 13 12 11 10 11 5 3 8 20 29 17 11 7 8 8 13 20 15 16 34 51 50 53 53 52 52 53 53 53 53
55 55 54 53 41 38 28 36 39 24 12 12 11 14 14 13 9 14 10 8 6 5 6 5 7 8 5 7 8 20 11 10 6 7 7 46 44 51 54 51 51 51 52 52 52
55 54 53 53 37 33 35 39 37 19 7 16 11 15 12 9 11 21 19 5 5 6 3 4 4 4 3 5 11 5 8 8 9 5 23 31 40 41 55 53 53 51 50 52 52
54 53 53 46 40 37 40 35 27 14 10 13 15 16 16 16 19 23 26 23 19 19 19 12 12 7 8 17 13 14 11 8 28 26 17 22 33 31 53 54 55 52 51 51 51
53 52 50 45 26 37 37 29 20 10 16 13 14 16 17 17 20 24 25 25 21 20 22 22 21 22 23 21 21 19 5 4 10 23 17 28 20 35 39 45 55 55 52 51 51
52 51 50 46 39 39 33 24 16 14 15 16 16 18 17 18 19 23 24 22 25 23 23 21 13 22 25 23 21 21 12 3 1 12 11 8 6 17 38 38 43 52 54 52 51
50 39 38 38 45 37 31 23 17 17 16 16 18 17 17 16 18 19 21 25 25 25 19 20 19 25 25 25 24 18 16 12 5 6 5 7 8 14 19 26 29 36 53 55 52
43 40 38 37 39 31 29 31 29 22 18 19 15 18 16 15 16 17 18 20 18 24 27 24 19 23 24 20 19 25 21 15 13 8 6 9 14 12 19 21 35 45 39 55 54
40 34 36 37 27 25 26 26 28 23 19 19 19 16 17 16 16 16 17 19 22 22 25 28 24 20 22 20 19 19 20 20 18 13 9 13 16 18 24 32 30 50 55 53 55
37 31 38 31 24 26 23 28 33 20 19 19 18 17 17 17 17 15 16 21 27 27 24 26 22 19 20 21 23 21 21 23 21 19 21 20 20 22 23 28 35 45 55 62 57
36 37 40 28 22 21 22 22 22 19 21 19 19 20 19 17 16 20 21 25 26 32 26 28 22 19 19 16 23 25 25 27 23 22 21 19 21 27 32 46 51 54 56 62 62
38 27 31 28 27 28 24 19 21 23 21 20 19 20 21 20 20 20 23 25 27 32 40 31 22 20 18 17 24 25 26 26 25 23 23 21 23 31 41 49 51 56 59 62 63
36 32 33 29 30 32 30 22 21 20 20 21 19 20 19 21 21 23 27 27 27 32 25 21 18 21 22 23 24 22 22 25 23 23 23 20 22 40 47 50 55 57 60 62 62
40 39 39 34 34 34 34 32 24 21 20 22 19 20 20 20 19 20 27 30 25 26 29 24 22 23 22 22 21 22 21 22 21 20 21 34 43 49 52 55 55 56 59 60 60
45 44 37 38 34 33 34 36 26 24 25 23 23 25 25 24 27 27 28 29 31 29 26 24 24 21 21 20 22 24 24 23 18 36 41 40 41 50 53 54 55 57 58 58 60
Lifted_Index
15 15 15 14 14 14 14 14 14 14 14 14 13 13 12 11 10 9 9 7 2 -1 -1 -2 -2 -3 -2 -1 -1 -0 -1 -1 -2 -2 -1 -1 0 1 1 1 0 -0 -1 -1 -2
15 15 15 15 15 15 15 14 14 14 14 14 14 13 12 11 10 9 8 5 1 -1 -2 -2 -3 -3 -2 -1 -1 -0 -0 -1 -1 -1 -1 -1 -0 1 1 1 0 -0 -1 -2 -2
14 14 15 15 15 15 15 15 15 14 14 14 14 13 13 12 10 7 5 2 0 -1 -2 -2 -2 -2 -2 -1 -1 -0 -0 -1 -1 -1 -1 -2 -1 0 1 1 0 -0 -1 -1 -2
14 14 15 15 15 15 15 15 15 15 14 14 14 13 13 12 9 5 2 1 -0 -0 -1 -1 -1 -1 -1 -1 -1 -1 -1 -1 -1 -1 -2 -2 -2 -1 0 1 1 -0 -1 -1 -1
13 13 14 14 15 15 15 15 15 15 15 14 14 13 13 11 8 4 1 0 1 1 1 1 -0 -0 0 -0 -1 -1 -1 -1 -1 -2 -2 -2 -2 -2 -0 0 1 0 -0 -0 -1
13 13 13 14 14 15 15 15 14 15 15 14 14 13 12 10 7 4 2 2 3 3 3 3 1 1 1 0 -1 -1 -1 -1 -1 -1 -2 -2 -2 -2 -1 0 0 0 0 -0 -0
13 13 13 13 14 14 14 14 14 14 14 14 13 13 12 10 8 6 5 5 5 5 5 4 3 2 2 1 -1 -2 -1 -1 -1 -1 -1 -1 -1 -1 -0 0 0 0 0 0 0
13 13 13 13 13 13 13 13 13 13 13 13 13 12 12 11 11 9 7 7 7 6 6 5 4 2 2 1 -1 -1 -1 -1 -1 -1 -1 -1 -1 -1 -0 -0 -0 0 0 1 1
13 13 13 13 12 12 12 12 12 12 12 12 12 12 12 12 12 11 10 9 9 8 7 5 4 2 2 1 0 0 -0 -0 -0 -1 -1 -1 -1 -1 -1 -1 -0 0 1 1 1
13 13 13 12 12 12 12 11 11 11 11 11 11 11 11 12 12 12 11 11 11 9 8 6 4 2 2 1 1 1 0 0 0 0 -1 -1 -1 -1 -1 -1 -1 -0 1 1 1
13 13 13 12 11 11 11 11 11 10 10 10 10 11 11 11 12 12 12 11 10 9 8 6 4 3 3 3 2 2 1 1 2 2 1 -0 -1 -1 -1 -1 -1 -0 0 1 1
13 13 12 11 10 11 11 10 10 10 10 10 10 10 10 11 11 11 11 10 9 8 7 6 5 4 4 5 4 3 1 2 3 3 2 1 -0 -0 -0 -1 -1 -0 -0 0 1
13 13 12 11 10 10 10 10 10 10 9 9 9 10 10 10 10 10 10 10 9 8 7 7 6 6 6 6 6 5 3 2 3 3 3 1 0 0 -0 -0 -0 -0 -0 0 0
13 13 12 11 10 10 10 10 10 9 7 8 9 9 9 9 9 10 10 10 9 9 8 7 7 7 6 6 7 6 5 4 3 3 3 2 1 1 -0 -0 -0 -0 -0 -0 0
13 13 13 11 10 10 9 9 9 7 5 6 8 9 9 9 9 9 9 9 9 9 8 8 8 8 8 8 8 7 7 6 4 2 2 3 2 1 0 -0 -0 -0 -0 -0 -0
14 14 13 11 10 9 9 8 7 6 5 6 8 8 8 8 8 8 9 8 8 8 8 8 8 9 9 9 9 8 7 5 4 2 2 2 3 2 1 -0 -1 -1 -1 -1 -1
14 14 13 11 10 9 8 8 6 5 6 7 8 8 8 8 8 8 8 8 7 6 6 6 7 8 9 9 9 8 7 4 2 2 2 3 3 4 3 1 -0 -1 -1 -1 -1
14 13 12 11 10 9 8 7 6 6 7 8 8 7 7 8 8 8 8 7 7 7 5 5 5 7 8 8 8 8 7 5 3 2 3 4 5 5 5 3 2 0 -1 -0 -0
12 11 11 10 9 9 8 7 7 7 7 7 7 7 7 7 8 8 8 8 8 8 6 5 5 7 8 8 8 8 7 6 4 3 3 4 6 6 6 4 3 2 0 -0 -0
9 9 9 9 9 8 7 7 7 7 7 7 7 7 7 7 7 7 8 9 9 9 8 7 6 6 7 7 8 8 7 7 6 4 2 3 5 6 6 5 4 2 1 -1 -1
7 7 8 8 8 8 7 7 7 7 7 6 6 6 6 6 7 7 7 9 9 9 9 9 8 6 6 7 7 7 7 7 6 4 3 3 4 6 7 6 5 2 0 -1 -2
6 6 6 7 7 7 6 6 6 6 6 6 6 6 6 6 6 7 7 8 9 9 9 9 8 6 6 6 7 7 7 7 6 5 5 4 5 7 7 6 5 2 -0 -2 -3
5 5 6 6 6 6 6 6 5 6 6 6 6 6 6 6 6 7 7 8 9 9 9 9 8 6 5 5 6 7 7 7 6 6 5 5 6 7 7 5 4 2 -1 -3 -3
5 5 5 5 5 5 5 5 5 6 6 6 6 5 6 6 6 6 7 7 8 8 8 9 8 6 5 5 6 6 6 6 6 5 5 5 6 7 6 4 2 0 -1 -3 -4
5 5 5 5 5 5 5 5 5 5 5 6 5 5 5 5 6 6 6 7 7 8 8 8 8 7 6 6 6 5 5 5 4 4 5 5 6 6 4 2 1 -0 -2 -4 -4
6 5 5 5 4 4 4 4 4 4 5 5 5 5 5 5 5 6 6 6 7 7 8 8 7 6 6 6 6 5 5 5 4 4 4 4 4 3 2 1 -1 -1 -2 -4 -5
6 6 5 5 4 4 4 4 4 4 5 5 5 5 5 5 5 6 6 7 7 7 7 7 7 6 5 5 5 5 5 5 5 4 3 3 3 2 1 -0 -1 -2 -3 -4 -5